Location: Bothwell
(42.3833°S, 147.0000°E)
Time: 21:33:29
(UTC+10:00)

CUTE 1.7 + AOD 2 - Pass Details

Date: 07 February 2023
Orbit: 584 x 601 km, 97.7° (Epoch: 02 April)

Event Time Altitude Azimuth Distance (km) Brightness Sun altitude
Exits shadow 05:25:02 11° 276° (W) 1,849 ? -10.3°
Maximum altitude 05:25:30 11° 269° (W) 1,840 ? -10.2°
Drops below altitude 10° 05:26:54 10° 250° (WSW) 1,940 ? -10.0°
Sets 05:30:38 0° 215° (SW) 2,860 ? -9.4°
